When you browse on this site, cookies collect data to enhance your experience and personalize the content and advertising you see.
Visit our Privacy Policy to learn more. By continuing to use the site, you agree to this use of cookies and data.
  • In Hungary
  • List of Countries
  • For 7 days
  • Water Temperature
  • Satellite Maps
  • Weather Map
  • News
  • Weather Widgets
  • user-avatar
    Login

    Hourly Weather Samak

    Today, 17 December, Monday

    Time Temperature Precipitation Wind Pressure Humidity
    00:00 +5°C° 0 mm 2 mps 680 mmHg 40%
    01:00 +5°C° 0 mm 2 mps 680 mmHg 40%
    02:00 +5°C° 0 mm 2 mps 680 mmHg 39%
    03:00 +5°C° 0 mm 2 mps 680 mmHg 38%
    04:00 +5°C° 0 mm 2 mps 679 mmHg 36%
    05:00 +5°C° 0 mm 2 mps 679 mmHg 37%
    06:00 +5°C° 0 mm 2 mps 679 mmHg 37%
    07:00 +4°C° 0 mm 3 mps 680 mmHg 38%
    08:00 +7°C° 0 mm 2 mps 680 mmHg 37%
    09:00 +8°C° 0 mm 2 mps 680 mmHg 36%
    10:00 +10°C° 0 mm 2 mps 681 mmHg 35%
    11:00 +10°C° 0 mm 2 mps 680 mmHg 35%
    12:00 +10°C° 0 mm 3 mps 680 mmHg 35%
    13:00 +11°C° 0 mm 3 mps 680 mmHg 35%
    14:00 +10°C° 0 mm 3 mps 680 mmHg 39%
    15:00 +9°C° 0 mm 2 mps 679 mmHg 43%
    16:00 +8°C° 0 mm 2 mps 679 mmHg 47%
    17:00 +7°C° 0 mm 2 mps 679 mmHg 46%
    18:00 +7°C° 0 mm 2 mps 679 mmHg 46%
    19:00 +5°C° 0 mm 3 mps 679 mmHg 45%
    20:00 +5°C° 0 mm 3 mps 679 mmHg 45%
    21:00 +5°C° 0 mm 3 mps 679 mmHg 44%
    22:00 +4°C° 0 mm 3 mps 679 mmHg 44%
    23:00 +4°C° 0 mm 3 mps 679 mmHg 44%

    Tomorrow, 18 December, Tuesday

    Time Temperature Precipitation Wind Pressure Humidity
    00:00 +4°C° 0 mm 3 mps 679 mmHg 45%
    01:00 +5°C° 0 mm 2 mps 679 mmHg 45%
    02:00 +5°C° 0 mm 2 mps 679 mmHg 46%
    03:00 +5°C° 0 mm 2 mps 679 mmHg 46%
    04:00 +5°C° 0 mm 2 mps 679 mmHg 47%
    05:00 +5°C° 0 mm 2 mps 679 mmHg 46%
    06:00 +5°C° 0 mm 2 mps 679 mmHg 46%
    07:00 +5°C° 0 mm 2 mps 680 mmHg 46%
    08:00 +7°C° 0 mm 2 mps 680 mmHg 44%
    09:00 +8°C° 0 mm 2 mps 680 mmHg 42%
    10:00 +10°C° 0 mm 2 mps 680 mmHg 41%
    11:00 +10°C° 0 mm 2 mps 679 mmHg 40%
    12:00 +12°C° 0 mm 2 mps 679 mmHg 40%
    13:00 +12°C° 0 mm 2 mps 678 mmHg 40%
    14:00 +10°C° 0 mm 2 mps 678 mmHg 43%
    15:00 +10°C° 0 mm 2 mps 677 mmHg 46%
    16:00 +9°C° 0 mm 2 mps 677 mmHg 49%
    17:00 +9°C° 0.1 mm 2 mps 677 mmHg 50%
    18:00 +8°C° 0.1 mm 2 mps 677 mmHg 51%
    19:00 +8°C° 0.1 mm 3 mps 676 mmHg 52%
    20:00 +8°C° 0.1 mm 2 mps 676 mmHg 52%
    21:00 +8°C° 0.1 mm 2 mps 676 mmHg 52%
    22:00 +8°C° 0.1 mm 2 mps 676 mmHg 51%
    23:00 +8°C° 0 mm 2 mps 675 mmHg 50%

    Day after tomorrow, 19 December, Wednesday

    Time Temperature Precipitation Wind Pressure Humidity
    00:00 +8°C° 0 mm 2 mps 675 mmHg 49%
    01:00 +8°C° 0 mm 2 mps 675 mmHg 48%
    02:00 +9°C° 0 mm 1 mps 675 mmHg 47%
    03:00 +9°C° 0 mm 1 mps 675 mmHg 47%
    04:00 +8°C° 0 mm 1 mps 675 mmHg 47%
    05:00 +8°C° 0.1 mm 1 mps 676 mmHg 50%
    06:00 +7°C° 0.1 mm 1 mps 676 mmHg 53%
    07:00 +7°C° 0.1 mm 1 mps 677 mmHg 56%
    08:00 +6°C° 0.2 mm 2 mps 678 mmHg 60%
    09:00 +6°C° 0.2 mm 2 mps 678 mmHg 63%
    10:00 +5°C° 0.2 mm 3 mps 679 mmHg 67%
    11:00 +5°C° 0.5 mm 3 mps 679 mmHg 71%
    12:00 +4°C° 0.5 mm 3 mps 679 mmHg 75%
    13:00 +4°C° 0.5 mm 3 mps 680 mmHg 80%
    14:00 +3°C° 0.5 mm 3 mps 680 mmHg 82%
    15:00 +3°C° 0.5 mm 3 mps 680 mmHg 84%
    16:00 +3°C° 0.5 mm 2 mps 681 mmHg 86%
    17:00 +3°C° 0.4 mm 2 mps 681 mmHg 86%
    18:00 +3°C° 0.4 mm 2 mps 681 mmHg 87%
    19:00 +3°C° 0.4 mm 2 mps 682 mmHg 87%
    20:00 +3°C° 0.4 mm 2 mps 682 mmHg 87%
    21:00 +2°C° 0.4 mm 2 mps 682 mmHg 87%
    22:00 +2°C° 0.4 mm 2 mps 682 mmHg 87%
    23:00 +3°C° 0.3 mm 1 mps 683 mmHg 87%

    20 December, Thursday

    Time Temperature Precipitation Wind Pressure Humidity
    00:00 +3°C° 0.3 mm 1 mps 683 mmHg 87%
    01:00 +3°C° 0.3 mm 1 mps 683 mmHg 88%
    02:00 +3°C° 0.2 mm 1 mps 683 mmHg 87%
    03:00 +3°C° 0.2 mm 1 mps 683 mmHg 87%
    04:00 +2°C° 0.2 mm 1 mps 683 mmHg 87%
    05:00 +2°C° 0.1 mm 1 mps 683 mmHg 86%
    06:00 +2°C° 0.1 mm 1 mps 683 mmHg 85%
    07:00 +2°C° 0.1 mm 1 mps 683 mmHg 84%
    08:00 +3°C° 0.1 mm 1 mps 683 mmHg 81%
    09:00 +4°C° 0.1 mm 1 mps 683 mmHg 77%
    10:00 +4°C° 0.1 mm 2 mps 684 mmHg 73%
    11:00 +5°C° 0 mm 2 mps 683 mmHg 72%
    12:00 +5°C° 0 mm 2 mps 683 mmHg 71%
    13:00 +6°C° 0 mm 2 mps 682 mmHg 69%
    14:00 +5°C° 0 mm 2 mps 682 mmHg 71%
    15:00 +4°C° 0 mm 2 mps 681 mmHg 73%
    16:00 +3°C° 0 mm 2 mps 680 mmHg 75%
    17:00 +3°C° 0 mm 2 mps 680 mmHg 72%
    18:00 +3°C° 0 mm 2 mps 680 mmHg 70%
    19:00 +1°C° 0 mm 3 mps 680 mmHg 67%
    20:00 +1°C° 0 mm 3 mps 680 mmHg 64%
    21:00 +1°C° 0 mm 3 mps 679 mmHg 62%
    22:00 +1°C° 0 mm 3 mps 679 mmHg 59%
    23:00 +1°C° 0 mm 3 mps 679 mmHg 57%

    21 December, Friday

    Time Temperature Precipitation Wind Pressure Humidity
    00:00 +1°C° 0 mm 3 mps 678 mmHg 56%
    01:00 +2°C° 0 mm 3 mps 678 mmHg 54%
    02:00 +2°C° 0 mm 3 mps 677 mmHg 52%
    03:00 +2°C° 0 mm 3 mps 677 mmHg 50%
    04:00 +2°C° 0 mm 3 mps 677 mmHg 48%
    05:00 +3°C° 0 mm 3 mps 677 mmHg 47%
    06:00 +3°C° 0 mm 3 mps 676 mmHg 46%
    07:00 +3°C° 0 mm 3 mps 676 mmHg 45%
    08:00 +5°C° 0 mm 3 mps 677 mmHg 44%
    09:00 +7°C° 0 mm 2 mps 677 mmHg 43%
    10:00 +9°C° 0 mm 2 mps 677 mmHg 43%
    11:00 +10°C° 0 mm 2 mps 676 mmHg 42%
    12:00 +10°C° 0 mm 2 mps 676 mmHg 41%
    13:00 +12°C° 0 mm 2 mps 675 mmHg 40%
    14:00 +10°C° 0 mm 2 mps 675 mmHg 42%
    15:00 +9°C° 0 mm 2 mps 675 mmHg 45%
    16:00 +8°C° 0 mm 2 mps 674 mmHg 48%
    17:00 +8°C° 0.1 mm 2 mps 675 mmHg 50%
    18:00 +7°C° 0.1 mm 2 mps 675 mmHg 52%
    19:00 +7°C° 0.1 mm 2 mps 675 mmHg 54%
    20:00 +7°C° 0.3 mm 2 mps 675 mmHg 57%
    21:00 +7°C° 0.3 mm 3 mps 675 mmHg 60%
    22:00 +7°C° 0.3 mm 3 mps 675 mmHg 64%
    23:00 +7°C° 0.3 mm 3 mps 675 mmHg 64%

    22 December, Saturday

    Time Temperature Precipitation Wind Pressure Humidity
    00:00 +7°C° 0.3 mm 2 mps 675 mmHg 65%
    01:00 +6°C° 0.3 mm 2 mps 675 mmHg 65%
    02:00 +6°C° 0.2 mm 2 mps 675 mmHg 65%
    03:00 +6°C° 0.2 mm 2 mps 675 mmHg 65%
    04:00 +7°C° 0.2 mm 1 mps 674 mmHg 65%
    05:00 +6°C° 0.2 mm 1 mps 675 mmHg 66%
    06:00 +6°C° 0.2 mm 1 mps 675 mmHg 67%
    07:00 +6°C° 0.2 mm 1 mps 675 mmHg 68%
    08:00 +7°C° 0.3 mm 1 mps 676 mmHg 66%
    09:00 +7°C° 0.3 mm 1 mps 676 mmHg 65%
    10:00 +7°C° 0.3 mm 2 mps 677 mmHg 63%
    11:00 +7°C° 0.3 mm 2 mps 676 mmHg 64%
    12:00 +7°C° 0.3 mm 2 mps 676 mmHg 64%
    13:00 +7°C° 0.3 mm 2 mps 676 mmHg 65%
    14:00 +6°C° 0.4 mm 2 mps 676 mmHg 69%
    15:00 +6°C° 0.4 mm 2 mps 676 mmHg 72%
    16:00 +5°C° 0.4 mm 2 mps 676 mmHg 75%
    17:00 +5°C° 0.4 mm 2 mps 676 mmHg 77%
    18:00 +4°C° 0.4 mm 2 mps 677 mmHg 80%
    19:00 +4°C° 0.4 mm 2 mps 677 mmHg 82%
    20:00 +5°C° 0.5 mm 1 mps 677 mmHg 83%
    21:00 +5°C° 0.5 mm 1 mps 677 mmHg 84%
    22:00 +4°C° 0.5 mm 1 mps 677 mmHg 85%
    23:00 +4°C° 0.4 mm 1 mps 677 mmHg 85%
    Show more